Flag for Canada Weather past 2 weeks in Timmins, Ontario, Canada

Now
36 °F

Light snow. Overcast.


Feels Like: 27 °F
Forecast: 34 / 48 °F
Wind: 12 mph from North

Location: Timmins

Current Time: Apr 27, 2015 at 1:12:31 AM

Latest Report: Apr 27, 2015 at 12:00 AM


Visibility: 10 mi

Pressure: 30.02 "Hg

Humidity: 93%

Dew point: 34 °F

Location of TimminsLocation

Historic Weather in Timmins — Graph

°F

Timmins temperature yesterday

Maximum temperature yesterday: 37 °F (at 12:00 AM)
Minimum temperature yesterday: 32 °F (at 4:00 AM)
Average temperature yesterday: 34 °F

Past Weeks' High & Low Weather Summary

 TemperatureHumidityPressure
High66 °F (Apr 12, 5:00 PM)100% (Apr 13, 9:00 PM)30.46 "Hg (Apr 13, 9:00 PM)
Low18 °F (Apr 24, 5:00 AM)22% (Apr 14, 3:00 PM)29.10 "Hg (Apr 20, 6:00 PM)
Average38 °F63%29.89 "Hg
* Reported Midnight between Apr 11 and Apr 12 — Midnight between Apr 26 and Apr 27, Timmins, Weather by CustomWeather, © 2015

Note: Actual official high and low records may vary slightly from our data, if they occured in-between our weather recording intervals... More about our weather records

Advertising

Timmins weather history for previous 24 hours

 ConditionsComfort  
Time TempWeatherWind HumidityBarometerVisibility
12:00 AM
Mon, Apr 27
36 °FLight snow. Overcast.12 mph93%30.02 "Hg10 mi
11:00 PM
Sun, Apr 26
36 °FDrizzle. Low clouds.12 mph93%30.03 "Hg10 mi
10:00 PM36 °FDrizzle. Fog.12 mph93%30.03 "Hg5 mi
9:00 PM36 °FDrizzle. Fog.10 mph93%30.03 "Hg3 mi
8:00 PM36 °FDrizzle. Fog.10 mph93%30.02 "Hg5 mi
7:00 PM36 °FDrizzle. Fog.8 mph93%30.03 "Hg6 mi
6:00 PM36 °FDrizzle. Fog.13 mph93%30.02 "Hg5 mi
5:00 PM36 °FDrizzle. Fog.12 mph93%30.02 "Hg5 mi
4:00 PM36 °FDrizzle. Fog.13 mph93%30.01 "Hg4 mi
3:00 PM36 °FDrizzle. Fog.12 mph93%30.01 "Hg4 mi
2:00 PM36 °FDrizzle. Fog.12 mph93%30.01 "Hg3 mi
1:00 PM34 °FDrizzle. Fog.12 mph100%30.01 "Hg5 mi
12:00 PM34 °FLow clouds.13 mph93%30.00 "Hg10 mi
11:00 AM34 °FLight snow. Mostly cloudy.9 mph93%29.99 "Hg5 mi
10:00 AM34 °FLight snow. Mostly cloudy.12 mph93%29.98 "Hg5 mi
9:00 AM32 °FLight snow. Mostly cloudy.9 mph100%29.98 "Hg4 mi
8:00 AM32 °FLight snow. Mostly cloudy.9 mph100%29.98 "Hg4 mi
7:00 AM32 °FLight snow. Mostly cloudy.9 mph93%29.96 "Hg3 mi
6:00 AM32 °FLight snow. Overcast.8 mph93%29.97 "Hg3 mi
5:00 AM32 °FLight snow. Overcast.8 mph93%29.97 "Hg15 mi
4:00 AM32 °FLight snow. Overcast.7 mph93%29.98 "Hg10 mi
3:00 AM34 °FLight snow. Overcast.8 mph87%29.98 "Hg15 mi
2:00 AM34 °FOvercast.8 mph87%29.98 "Hg15 mi
1:00 AM36 °FLight snow. Overcast.8 mph75%29.98 "Hg15 mi
Weather by CustomWeather, © 2015

See weather overviewHow to use our weather pages